Simultaneous Nadir Overpasses (SNOs) Predictions

Prediction of SNOs between NOAA-19 and TERRA Satellite Orbit:

Table of predicted SNOs for the next 14.0 days since TLE Epoch: 11/26/2022
Index Date (NOAA-19) Time (NOAA-19) Lat,Lon (NOAA-19) SZA (NOAA-19 ) Date (TERRA) Time (TERRA) Lat,Lon (TERRA) SZA (TERRA ) Distance(km) Time Diff (sec)
1 11/26/2022 05:07:39 80.90, 139.14 103.75 11/26/2022 05:06:42 80.91, 139.15 103.74 1.46 57
2 11/28/2022 08:07:28 80.91, 93.50 104.06 11/28/2022 08:08:19 80.90, 93.57 104.08 1.48 51
3 11/28/2022 08:58:27 -80.90, -98.90 75.91 11/28/2022 08:57:43 -80.89, -98.86 75.93 1.32 44
4 11/30/2022 11:58:15 -80.91,-143.98 75.58 11/30/2022 11:59:19 -80.90,-144.15 75.58 2.98 64
5 11/30/2022 12:49:13 80.90, 23.67 104.46 11/30/2022 12:48:41 80.90, 23.49 104.43 3.13 32
6 12/02/2022 15:49:17 80.90, -27.70 104.21 12/02/2022 15:50:18 80.88, -22.22 104.69 96.58 61
7 12/02/2022 16:40:02 -80.91, 145.62 75.26 12/02/2022 16:39:41 -80.90, 145.70 75.27 1.56 21
8 12/04/2022 20:30:47 80.91, -91.98 105.03 12/04/2022 20:30:39 80.90, -92.09 105.00 2.23 8
9 12/07/2022 00:21:36 -80.91, 30.32 74.74 12/07/2022 00:21:38 -80.91, 30.33 74.73 0.75 2



Historial Predications of SNOs between NOAA-19 and TERRA
